Weather reports worldwide

Advertisment
Boulmer, United Kingdom (3240): temperature & dewpoint: 08.12.2017 18:00:00 - 14.12.2017 18:00:00 (GMT)Boulmer, United Kingdom (3240): wind speed & gusts: 08.12.2017 18:00:00 - 14.12.2017 18:00:00 (GMT)Boulmer, United Kingdom (3240): wind direction: 08.12.2017 18:00:00 - 14.12.2017 18:00:00 (GMT)Boulmer, United Kingdom (3240): reduced air pressure: 08.12.2017 18:00:00 - 14.12.2017 18:00:00 (GMT)Boulmer, United Kingdom (3240): visibility: 08.12.2017 18:00:00 - 14.12.2017 18:00:00 (GMT)Boulmer, United Kingdom (3240): sunshine duration: 08.12.2017 18:00:00 - 14.12.2017 18:00:00 (GMT)Boulmer, United Kingdom (3240): precipitation: 08.12.2017 18:00:00 - 14.12.2017 18:00:00 (GMT)
Date & Time tt [°C] td [°C] ff [km/h] ff [kn] fx [km/h] fx [kn] dd ppp [hPa] vv [km] sd [min] rr [mm]
14.12.2017 18:00:00 2,5 1,3 21 11 - - W 981,2 10 0 0,0
14.12.2017 17:00:00 2,9 1,7 15 8 - - WNW 980,8 10 0 0,0
14.12.2017 16:00:00 2,7 2,1 13 7 - - W 980,0 10 0 0,0
14.12.2017 15:00:00 1,7 1,0 9 5 - - SSW 979,7 10 0 0,6
14.12.2017 14:00:00 2,6 1,8 15 8 - - S 979,8 7 0 0,4
14.12.2017 13:00:00 3,6 2,3 18 10 - - S 980,0 10 0 0,0
14.12.2017 12:00:00 3,5 1,6 15 8 - - S 980,7 10 0 0,0
14.12.2017 11:00:00 3,7 1,3 11 6 - - SSW 981,4 10 0 0,0
14.12.2017 10:00:00 3,4 0,9 15 8 - - SSW 981,5 45 0 0,0
14.12.2017 09:00:00 2,8 0,9 15 8 - - SW 981,5 10 0 0,0
14.12.2017 08:00:00 2,5 0,6 18 10 - - SSW 981,7 10 0 0,0
14.12.2017 07:00:00 1,8 -0,3 9 5 - - S 981,8 10 0 0,0
14.12.2017 06:00:00 1,7 -0,6 18 10 46 25 SSW 981,9 10 0 0,0
14.12.2017 05:00:00 2,3 -0,8 31 17 46 25 WSW 982,1 10 0 0,0
14.12.2017 04:00:00 1,8 -1,1 28 15 - - WSW 982,1 10 0 0,0
14.12.2017 03:00:00 1,4 -1,3 26 14 - - WSW 982,3 10 0 0,0
14.12.2017 02:00:00 1,8 -1,4 26 14 - - WSW 982,1 10 0 0,0
14.12.2017 01:00:00 1,8 -1,4 21 11 - - WSW 982,0 10 0 0,0
14.12.2017 00:00:00 1,7 -1,1 13 7 - - SW 981,9 10 - 0,0
13.12.2017 23:00:00 2,0 -0,9 21 11 48 26 WSW 981,7 10 0 0,0
13.12.2017 22:00:00 2,8 -1,0 34 18 - - W 981,3 10 0 0,0
13.12.2017 21:00:00 2,5 -1,0 26 14 - - WSW 981,8 10 0 0,0
13.12.2017 20:00:00 2,0 -0,8 11 6 - - SSW 982,1 10 0 0,0
13.12.2017 19:00:00 2,5 -0,6 22 12 - - W 982,5 10 0 0,0
13.12.2017 18:00:00 2,4 -0,5 21 11 - - WSW 982,0 50 0 0,0
13.12.2017 17:00:00 2,7 -0,6 13 7 - - SW 982,7 10 0 0,0
13.12.2017 16:00:00 3,1 -0,4 8 4 - - SW 982,8 10 0 0,0
13.12.2017 15:00:00 4,1 0,6 18 10 - - WSW 982,6 10 54 0,0
13.12.2017 14:00:00 5,2 1,6 29 16 46 25 W 983,0 10 24 0,0
13.12.2017 13:00:00 4,3 2,5 16 9 - - WSW 984,0 50 0 1,0
13.12.2017 12:00:00 6,1 4,0 18 10 - - SW 984,4 19 0 0,2
13.12.2017 11:00:00 5,4 3,6 24 13 - - SSW 985,4 10 6 0,0
13.12.2017 10:00:00 4,8 2,9 24 13 - - SSW 986,3 10 0 0,0
13.12.2017 09:00:00 5,2 2,6 28 15 46 25 SSW 987,6 29 0 0,0
13.12.2017 08:00:00 5,1 3,1 29 16 - - SW 989,0 10 0 0,0
13.12.2017 07:00:00 4,7 2,6 15 8 - - SW 990,6 10 0 0,0
13.12.2017 06:00:00 4,8 2,6 26 14 - - SW 991,5 10 0 0,0
13.12.2017 05:00:00 4,1 2,4 26 14 - - SW 992,5 24 0 0,0
13.12.2017 04:00:00 4,2 2,4 21 11 - - SW 993,8 10 0 0,0
13.12.2017 03:00:00 3,9 2,0 22 12 - - SW 994,0 10 0 0,0
13.12.2017 02:00:00 3,7 1,6 22 12 - - SW 994,1 10 0 0,0
13.12.2017 01:00:00 4,4 1,5 24 13 - - WSW 994,0 10 0 0,0
13.12.2017 00:00:00 3,7 2,1 16 9 - - SW 994,0 10 - 0,0
12.12.2017 23:00:00 2,8 1,6 24 13 - - S 993,9 10 0 0,0
12.12.2017 22:00:00 2,3 1,4 18 10 - - S 995,1 7 0 0,4
12.12.2017 21:00:00 3,0 1,8 31 17 46 25 SSE 996,2 9 0 0,0
12.12.2017 20:00:00 3,0 2,0 22 12 - - S 997,9 10 0 0,2
12.12.2017 19:00:00 1,6 0,3 11 6 - - S 999,3 10 0 0,0
12.12.2017 18:00:00 1,1 -0,3 11 6 - - S 1000,1 10 0 0,0
12.12.2017 17:00:00 1,0 -0,3 11 6 - - S 1000,7 10 0 0,0
12.12.2017 16:00:00 1,5 -0,1 16 9 - - S 1001,3 14 0 0,0
12.12.2017 15:00:00 2,7 0,7 11 6 - - SW 1001,6 10 12 0,0
12.12.2017 14:00:00 3,1 0,5 15 8 - - SW 1002,0 30 30 0,0
12.12.2017 13:00:00 2,8 0,2 22 12 - - WSW 1002,5 10 42 0,0
12.12.2017 12:00:00 2,4 -0,8 18 10 - - SW 1002,9 10 24 0,0
12.12.2017 11:00:00 1,7 -1,2 16 9 - - WSW 1003,3 10 36 0,0
12.12.2017 10:00:00 0,9 -1,7 22 12 - - WSW 1003,0 10 60 0,0
12.12.2017 09:00:00 -0,5 -2,5 21 11 - - WSW 1003,1 10 0 0,0
12.12.2017 08:00:00 -0,4 -2,3 18 10 - - WSW 1002,8 10 0 0,0
12.12.2017 07:00:00 -0,9 -3,1 11 6 - - WSW 1002,6 10 0 0,0
12.12.2017 06:00:00 1,3 -1,5 16 9 - - W 1001,9 10 0 0,0
12.12.2017 05:00:00 1,5 -0,8 18 10 - - W 1001,8 10 0 0,0
12.12.2017 04:00:00 1,9 0,0 18 10 - - W 1001,8 10 0 0,0
12.12.2017 03:00:00 1,6 0,2 22 12 - - W 1001,3 50 0 0,0
12.12.2017 02:00:00 1,9 0,5 24 13 - - W 1000,4 10 0 0,0
12.12.2017 01:00:00 1,3 0,2 22 12 - - W 999,4 10 0 0,0
12.12.2017 00:00:00 1,2 -0,1 18 10 - - W 998,6 10 - 0,0
11.12.2017 23:00:00 1,6 0,5 15 8 - - WNW 998,2 10 0 0,0
11.12.2017 22:00:00 1,4 -0,1 15 8 - - WNW 997,7 10 0 0,0
11.12.2017 21:00:00 1,3 0,0 16 9 - - WNW 997,0 10 0 0,0
11.12.2017 20:00:00 2,2 0,9 16 9 - - WNW 996,0 10 0 0,0
11.12.2017 19:00:00 1,9 0,5 18 10 - - WNW 994,6 10 0 0,0
11.12.2017 18:00:00 2,1 0,8 16 9 - - WNW 993,6 10 0 0,0
11.12.2017 17:00:00 2,2 0,9 21 11 - - WNW 992,8 10 0 0,0
11.12.2017 16:00:00 2,2 0,8 18 10 - - WNW 992,1 10 0 0,4
11.12.2017 15:00:00 1,9 -0,2 18 10 - - WNW 991,3 10 24 0,0
11.12.2017 14:00:00 2,4 -0,7 18 10 - - NW 990,4 10 54 0,0
11.12.2017 13:00:00 2,5 -0,8 18 10 - - WNW 989,7 10 36 0,0
11.12.2017 12:00:00 1,5 -2,1 11 6 - - W 989,8 10 36 0,0
11.12.2017 11:00:00 1,9 -2,2 13 7 - - WNW 989,6 10 24 0,0
11.12.2017 10:00:00 0,5 -3,4 15 8 - - WNW 989,2 10 54 0,0
11.12.2017 09:00:00 -1,6 -5,2 18 10 - - WNW 988,2 10 0 0,0
11.12.2017 08:00:00 -2,5 -7,6 13 7 - - W 987,6 10 0 0,0
11.12.2017 07:00:00 -2,5 -8,1 16 9 - - W 986,7 10 0 0,0
11.12.2017 06:00:00 -2,4 -8,1 16 9 - - W 986,5 10 0 0,0
11.12.2017 05:00:00 -2,7 -7,8 21 11 - - WSW 986,5 10 0 0,0
11.12.2017 04:00:00 -2,5 -8,0 21 11 - - WSW 986,1 10 0 0,0
11.12.2017 03:00:00 -3,7 -7,7 18 10 - - WSW 986,0 10 0 0,0
11.12.2017 02:00:00 -2,7 -7,6 15 8 - - W 985,4 10 0 0,0
11.12.2017 01:00:00 -2,1 -6,8 18 10 - - W 984,9 10 0 0,0
11.12.2017 00:00:00 -1,5 -6,8 18 10 - - W 984,6 10 - 0,0
10.12.2017 23:00:00 -2,1 -6,5 21 11 - - W 984,2 10 0 0,0
10.12.2017 22:00:00 -1,6 -6,0 18 10 - - W 983,5 10 0 0,0
10.12.2017 21:00:00 -1,7 -5,4 16 9 - - W 983,1 10 0 0,0
10.12.2017 20:00:00 -1,3 -4,9 18 10 - - WNW 982,5 10 0 0,0
10.12.2017 19:00:00 -1,4 -4,1 21 11 - - WNW 982,2 10 0 0,0
10.12.2017 18:00:00 -1,4 -3,6 16 9 - - W 981,7 10 0 0,0
10.12.2017 17:00:00 -0,5 -2,9 13 7 - - W 981,4 10 0 0,0
10.12.2017 16:00:00 -0,1 -2,7 16 9 - - WNW 981,1 10 0 0,0
10.12.2017 15:00:00 0,1 -2,7 8 4 - - NW 981,0 10 54 0,0
10.12.2017 14:00:00 1,3 -2,3 13 7 - - NW 981,0 10 60 0,0
10.12.2017 13:00:00 0,0 -1,8 11 6 - - NW 981,4 10 42 0,0
10.12.2017 12:00:00 -0,3 -2,7 15 8 - - NW 982,2 10 48 0,0
10.12.2017 11:00:00 0,0 -2,8 8 4 - - WNW 983,0 10 60 0,0
10.12.2017 10:00:00 -2,3 -4,3 11 6 - - W 983,8 10 12 0,0
10.12.2017 09:00:00 -3,2 -5,1 9 5 - - W 984,9 10 0 0,0
10.12.2017 08:00:00 -4,0 -5,6 9 5 - - WNW 985,9 10 0 0,0
10.12.2017 07:00:00 -4,0 -5,6 9 5 - - WNW 987,1 10 0 0,0
10.12.2017 06:00:00 -3,8 -5,7 9 5 - - W 988,7 10 0 0,0
10.12.2017 05:00:00 -3,0 -5,3 13 7 - - W 990,3 10 0 0,0
10.12.2017 04:00:00 -3,2 -5,8 9 5 - - W 991,9 10 0 0,0
10.12.2017 03:00:00 -2,6 -4,7 13 7 - - W 994,2 10 0 0,0
10.12.2017 02:00:00 -3,5 -5,1 15 8 - - WSW 995,7 10 0 0,0
10.12.2017 01:00:00 -3,2 -4,9 4 2 - - SW 997,1 10 0 0,0
10.12.2017 00:00:00 -2,5 -4,8 11 6 - - W 998,5 10 - 0,0
09.12.2017 23:00:00 -1,1 -4,0 15 8 - - W 999,9 10 0 0,0
09.12.2017 22:00:00 -0,9 -4,1 11 6 - - WSW 1001,4 10 0 0,0
09.12.2017 21:00:00 -0,8 -3,7 18 10 - - WSW 1002,4 10 0 0,0
09.12.2017 20:00:00 -0,4 -3,5 21 11 - - W 1003,6 10 0 0,0
09.12.2017 19:00:00 -0,5 -3,7 21 11 - - WSW 1004,8 10 0 0,0
09.12.2017 18:00:00 -0,1 -3,6 18 10 - - W 1005,3 10 0 0,0
09.12.2017 17:00:00 0,2 -3,5 21 11 - - W 1006,1 10 0 0,0
09.12.2017 16:00:00 0,6 -3,3 18 10 - - WSW 1006,9 10 6 0,0
09.12.2017 15:00:00 2,0 -3,2 16 9 - - WSW 1007,6 10 18 0,0
09.12.2017 14:00:00 2,2 -3,7 13 7 - - W 1008,4 10 12 0,0
09.12.2017 13:00:00 2,4 -3,6 21 11 - - W 1009,5 10 0 0,0
09.12.2017 12:00:00 2,3 -3,6 18 10 - - W 1010,4 10 12 0,0
09.12.2017 11:00:00 1,8 -3,9 22 12 - - W 1011,3 10 42 0,0
09.12.2017 10:00:00 1,1 -4,3 24 13 - - W 1011,8 10 12 0,0
09.12.2017 09:00:00 0,5 -4,5 24 13 - - W 1012,3 10 6 0,0
09.12.2017 08:00:00 -0,1 -4,9 22 12 - - W 1012,3 10 0 0,0
09.12.2017 07:00:00 0,6 -4,7 28 15 - - W 1012,4 10 0 0,0
09.12.2017 06:00:00 1,0 -4,7 29 16 - - W 1012,8 10 0 0,0
09.12.2017 05:00:00 1,1 -4,5 31 17 46 25 W 1012,9 10 0 0,0
09.12.2017 04:00:00 1,3 -4,5 31 17 48 26 W 1013,7 10 0 0,0
09.12.2017 03:00:00 1,7 -4,4 35 19 48 26 W 1013,5 10 0 0,0
09.12.2017 02:00:00 2,0 -4,4 35 19 50 27 WNW 1013,4 10 0 0,0
09.12.2017 01:00:00 1,8 -4,3 37 20 59 32 W 1013,5 10 0 0,0
09.12.2017 00:00:00 1,7 -4,3 35 19 55 30 W 1013,0 10 - 0,0
08.12.2017 23:00:00 1,6 -4,5 39 21 57 31 W 1012,6 10 0 0,0
08.12.2017 22:00:00 1,9 -4,9 42 23 63 34 W 1012,5 10 0 0,0
08.12.2017 21:00:00 1,6 -5,1 39 21 70 38 W 1012,3 10 0 0,0
08.12.2017 20:00:00 1,6 -5,4 44 24 59 32 W 1012,0 10 0 0,0
08.12.2017 19:00:00 1,4 -5,6 39 21 57 31 W 1011,7 10 0 0,0
08.12.2017 18:00:00 1,4 -5,8 39 21 55 30 W 1011,3 10 0 0,0

tt = temperature
td = dewpoint
ff = wind speed
fx = gusts
dd = wind direction
ppp = reduced air pressure
vv = visibility
sd = sunshine duration
rr = precipitation

Next stations